Time,TemperatureF,DewpointF,PressureIn,WindDirection,WindDirectionDegrees,WindSpeedMPH,WindSpeedGustMPH,Humidity,HourlyPrecipIn,Conditions,Clouds,dailyrainin,SolarRadiationWatts/m^2,SoftwareType,DateUTC
2013-01-09 00:02:00,28.0,24.0,-100.00,SW,223,6.0,11.0,86,0.00,,,0.00,1.000000,,2013-01-09 06:02:00,
2013-01-09 00:32:00,28.0,25.0,-100.00,SW,223,9.0,12.0,87,0.00,,,0.00,1.000000,,2013-01-09 06:32:00,
2013-01-09 00:42:00,28.0,25.0,-100.00,SW,223,9.0,12.0,87,0.00,,,0.00,1.000000,,2013-01-09 06:42:00,
2013-01-09 00:52:00,28.0,25.0,-100.00,SW,223,9.0,12.0,87,0.00,,,0.00,1.000000,,2013-01-09 06:52:00,
2013-01-09 01:02:00,28.0,25.0,-100.00,SW,223,9.0,12.0,87,0.00,,,0.00,1.000000,,2013-01-09 07:02:00,
2013-01-09 01:32:00,28.0,24.0,-100.00,SSW,213,7.0,14.0,85,0.00,,,0.00,1.000000,,2013-01-09 07:32:00,
2013-01-09 01:42:00,28.0,24.0,-100.00,SSW,213,7.0,14.0,85,0.00,,,0.00,1.000000,,2013-01-09 07:42:00,
2013-01-09 01:52:00,28.0,24.0,-100.00,SSW,213,7.0,14.0,85,0.00,,,0.00,1.000000,,2013-01-09 07:52:00,
2013-01-09 02:02:00,28.0,24.0,-100.00,SSW,213,7.0,14.0,85,0.00,,,0.00,1.000000,,2013-01-09 08:02:00,
2013-01-09 02:32:00,28.0,24.0,-100.00,SW,227,7.0,10.0,83,0.00,,,0.00,1.000000,,2013-01-09 08:32:00,
2013-01-09 02:43:00,28.0,24.0,-100.00,SW,227,7.0,10.0,83,0.00,,,0.00,1.000000,,2013-01-09 08:43:00,
2013-01-09 02:53:00,28.0,24.0,-100.00,SW,227,7.0,10.0,83,0.00,,,0.00,1.000000,,2013-01-09 08:53:00,
2013-01-09 03:02:00,28.0,24.0,-100.00,SW,227,7.0,10.0,83,0.00,,,0.00,1.000000,,2013-01-09 09:02:00,
2013-01-09 03:32:00,29.0,25.0,-100.00,SW,227,9.0,15.0,83,0.00,,,0.00,1.000000,,2013-01-09 09:32:00,
2013-01-09 03:42:00,29.0,25.0,-100.00,SW,227,9.0,15.0,83,0.00,,,0.00,1.000000,,2013-01-09 09:42:00,
2013-01-09 03:53:00,29.0,25.0,-100.00,SW,227,9.0,15.0,83,0.00,,,0.00,1.000000,,2013-01-09 09:53:00,
2013-01-09 04:02:00,29.0,25.0,-100.00,SW,227,9.0,15.0,83,0.00,,,0.00,1.000000,,2013-01-09 10:02:00,
2013-01-09 04:32:00,31.0,26.0,-100.00,SW,234,7.0,15.0,81,0.00,,,0.00,1.000000,,2013-01-09 10:32:00,
2013-01-09 04:42:00,31.0,26.0,-100.00,SW,234,7.0,15.0,81,0.00,,,0.00,1.000000,,2013-01-09 10:42:00,
2013-01-09 04:52:00,31.0,26.0,-100.00,SW,234,7.0,15.0,81,0.00,,,0.00,1.000000,,2013-01-09 10:52:00,
2013-01-09 05:02:00,31.0,26.0,-100.00,SW,234,7.0,15.0,81,0.00,,,0.00,1.000000,,2013-01-09 11:02:00,
2013-01-09 05:33:00,33.0,22.0,-100.00,West,259,21.0,30.0,64,0.00,,,0.00,1.000000,,2013-01-09 11:33:00,
2013-01-09 05:43:00,33.0,22.0,-100.00,West,259,21.0,30.0,64,0.00,,,0.00,1.000000,,2013-01-09 11:43:00,
2013-01-09 05:53:00,33.0,22.0,-100.00,West,259,21.0,30.0,64,0.00,,,0.00,1.000000,,2013-01-09 11:53:00,
2013-01-09 06:03:00,33.0,22.0,-100.00,West,259,21.0,30.0,64,0.00,,,0.00,1.000000,,2013-01-09 12:03:00,
2013-01-09 06:33:00,31.0,22.0,-100.00,West,266,18.0,32.0,68,0.00,,,0.00,1.000000,,2013-01-09 12:33:00,
2013-01-09 06:43:00,31.0,22.0,-100.00,West,266,18.0,32.0,68,0.00,,,0.00,1.000000,,2013-01-09 12:43:00,
2013-01-09 06:53:00,31.0,22.0,-100.00,West,266,18.0,32.0,68,0.00,,,0.00,1.000000,,2013-01-09 12:53:00,
2013-01-09 07:02:00,31.0,22.0,-100.00,West,266,18.0,32.0,68,0.00,,,0.00,1.000000,,2013-01-09 13:02:00,
2013-01-09 07:33:00,30.0,21.0,-100.00,West,262,16.0,29.0,69,0.00,,,0.00,1.000000,,2013-01-09 13:33:00,
2013-01-09 07:43:00,30.0,21.0,-100.00,West,262,16.0,29.0,69,0.00,,,0.00,1.000000,,2013-01-09 13:43:00,
2013-01-09 07:53:00,30.0,21.0,-100.00,West,262,16.0,29.0,69,0.00,,,0.00,1.000000,,2013-01-09 13:53:00,
2013-01-09 08:03:00,30.0,21.0,-100.00,West,262,16.0,29.0,69,0.00,,,0.00,1.000000,,2013-01-09 14:03:00,
2013-01-09 08:33:00,29.0,21.0,-100.00,West,278,12.0,30.0,71,0.00,,,0.00,3.000000,,2013-01-09 14:33:00,
2013-01-09 08:43:00,29.0,21.0,-100.00,West,278,12.0,30.0,71,0.00,,,0.00,3.000000,,2013-01-09 14:43:00,
2013-01-09 08:53:00,29.0,21.0,-100.00,West,278,12.0,30.0,71,0.00,,,0.00,3.000000,,2013-01-09 14:53:00,
2013-01-09 09:03:00,29.0,21.0,-100.00,West,278,12.0,30.0,71,0.00,,,0.00,3.000000,,2013-01-09 15:03:00,
2013-01-09 09:33:00,29.0,20.0,-100.00,West,280,14.0,24.0,68,0.00,,,0.00,68.000000,,2013-01-09 15:33:00,
2013-01-09 09:43:00,29.0,20.0,-100.00,West,280,14.0,24.0,68,0.00,,,0.00,68.000000,,2013-01-09 15:43:00,
2013-01-09 09:53:00,29.0,20.0,-100.00,West,280,14.0,24.0,68,0.00,,,0.00,68.000000,,2013-01-09 15:53:00,
2013-01-09 10:03:00,29.0,20.0,-100.00,West,280,14.0,24.0,68,0.00,,,0.00,68.000000,,2013-01-09 16:03:00,
2013-01-09 10:34:00,29.0,19.0,-100.00,WNW,283,15.0,23.0,65,0.00,,,0.00,213.000000,,2013-01-09 16:34:00,
2013-01-09 10:43:00,29.0,19.0,-100.00,WNW,283,15.0,23.0,65,0.00,,,0.00,213.000000,,2013-01-09 16:43:00,
2013-01-09 10:53:00,29.0,19.0,-100.00,WNW,283,15.0,23.0,65,0.00,,,0.00,213.000000,,2013-01-09 16:53:00,
2013-01-09 11:03:00,29.0,19.0,-100.00,WNW,283,15.0,23.0,65,0.00,,,0.00,213.000000,,2013-01-09 17:03:00,
2013-01-09 11:33:00,30.0,18.0,-100.00,WNW,293,11.0,20.0,60,0.00,,,0.00,324.000000,,2013-01-09 17:33:00,
2013-01-09 11:43:00,30.0,18.0,-100.00,WNW,293,11.0,20.0,60,0.00,,,0.00,324.000000,,2013-01-09 17:43:00,
2013-01-09 11:53:00,30.0,18.0,-100.00,WNW,293,11.0,20.0,60,0.00,,,0.00,324.000000,,2013-01-09 17:53:00,
2013-01-09 12:03:00,30.0,18.0,-100.00,WNW,293,11.0,20.0,60,0.00,,,0.00,324.000000,,2013-01-09 18:03:00,
2013-01-09 12:33:00,32.0,19.0,-100.00,West,272,9.0,18.0,57,0.00,,,0.00,393.000000,,2013-01-09 18:33:00,
2013-01-09 12:43:00,32.0,19.0,-100.00,West,272,9.0,18.0,57,0.00,,,0.00,393.000000,,2013-01-09 18:43:00,
2013-01-09 12:53:00,32.0,19.0,-100.00,West,272,9.0,18.0,57,0.00,,,0.00,393.000000,,2013-01-09 18:53:00,
2013-01-09 13:03:00,32.0,19.0,-100.00,West,272,9.0,18.0,57,0.00,,,0.00,393.000000,,2013-01-09 19:03:00,
2013-01-09 14:33:00,32.0,19.0,-100.00,SW,234,10.0,17.0,58,-99.99,,,0.00,345.000000,,2013-01-09 20:33:00,
2013-01-09 14:43:00,32.0,19.0,-100.00,SW,234,10.0,17.0,58,-99.99,,,0.00,345.000000,,2013-01-09 20:43:00,
2013-01-09 14:53:00,32.0,19.0,-100.00,SW,234,10.0,17.0,58,-99.99,,,0.00,345.000000,,2013-01-09 20:53:00,
2013-01-09 15:03:00,32.0,19.0,-100.00,SW,234,10.0,17.0,58,-99.99,,,0.00,345.000000,,2013-01-09 21:03:00,
2013-01-09 15:33:00,32.0,19.0,-100.00,WSW,238,10.0,18.0,57,0.00,,,0.00,271.000000,,2013-01-09 21:33:00,
2013-01-09 15:43:00,32.0,19.0,-100.00,WSW,238,10.0,18.0,57,0.00,,,0.00,271.000000,,2013-01-09 21:43:00,
2013-01-09 15:53:00,32.0,19.0,-100.00,WSW,238,10.0,18.0,57,0.00,,,0.00,271.000000,,2013-01-09 21:53:00,
2013-01-09 16:03:00,32.0,19.0,-100.00,WSW,238,10.0,18.0,57,0.00,,,0.00,271.000000,,2013-01-09 22:03:00,
2013-01-09 16:33:00,32.0,19.0,-100.00,SW,234,8.0,17.0,57,0.00,,,0.00,158.000000,,2013-01-09 22:33:00,
2013-01-09 16:43:00,32.0,19.0,-100.00,SW,234,8.0,17.0,57,0.00,,,0.00,158.000000,,2013-01-09 22:43:00,
2013-01-09 16:52:00,32.0,19.0,-100.00,SW,234,8.0,17.0,57,0.00,,,0.00,158.000000,,2013-01-09 22:52:00,
2013-01-09 17:02:00,32.0,19.0,-100.00,SW,234,8.0,17.0,57,0.00,,,0.00,158.000000,,2013-01-09 23:02:00,
2013-01-09 17:33:00,28.0,17.0,-100.00,SW,232,6.0,13.0,63,0.00,,,0.00,25.000000,,2013-01-09 23:33:00,
2013-01-09 17:43:00,28.0,17.0,-100.00,SW,232,6.0,13.0,63,0.00,,,0.00,25.000000,,2013-01-09 23:43:00,
2013-01-09 17:53:00,28.0,17.0,-100.00,SW,232,6.0,13.0,63,0.00,,,0.00,25.000000,,2013-01-09 23:53:00,
2013-01-09 18:03:00,28.0,17.0,-100.00,SW,232,6.0,13.0,63,0.00,,,0.00,25.000000,,2013-01-10 00:03:00,
2013-01-09 18:33:00,26.0,18.0,-100.00,South,185,5.0,9.0,70,0.00,,,0.00,1.000000,,2013-01-10 00:33:00,
2013-01-09 18:43:00,26.0,18.0,-100.00,South,185,5.0,9.0,70,0.00,,,0.00,1.000000,,2013-01-10 00:43:00,
2013-01-09 18:53:00,26.0,18.0,-100.00,South,185,5.0,9.0,70,0.00,,,0.00,1.000000,,2013-01-10 00:53:00,
2013-01-09 19:02:00,26.0,18.0,-100.00,South,185,5.0,9.0,70,0.00,,,0.00,1.000000,,2013-01-10 01:02:00,
2013-01-09 19:33:00,24.0,16.0,-100.00,South,189,5.0,8.0,71,0.00,,,0.00,1.000000,,2013-01-10 01:33:00,
2013-01-09 19:43:00,24.0,16.0,-100.00,South,189,5.0,8.0,71,0.00,,,0.00,1.000000,,2013-01-10 01:43:00,
2013-01-09 19:53:00,24.0,16.0,-100.00,South,189,5.0,8.0,71,0.00,,,0.00,1.000000,,2013-01-10 01:53:00,
2013-01-09 20:03:00,24.0,16.0,-100.00,South,189,5.0,8.0,71,0.00,,,0.00,1.000000,,2013-01-10 02:03:00,
2013-01-09 20:33:00,22.0,15.0,-100.00,SE,131,3.0,5.0,75,0.00,,,0.00,1.000000,,2013-01-10 02:33:00,
2013-01-09 20:43:00,22.0,15.0,-100.00,SE,131,3.0,5.0,75,0.00,,,0.00,1.000000,,2013-01-10 02:43:00,
2013-01-09 20:52:00,22.0,15.0,-100.00,SE,131,3.0,5.0,75,0.00,,,0.00,1.000000,,2013-01-10 02:52:00,
2013-01-09 21:02:00,22.0,15.0,-100.00,SE,131,3.0,5.0,75,0.00,,,0.00,1.000000,,2013-01-10 03:02:00,
2013-01-09 21:33:00,19.0,14.0,-100.00,ENE,74,4.0,6.0,80,0.00,,,0.00,1.000000,,2013-01-10 03:33:00,
2013-01-09 21:43:00,19.0,14.0,-100.00,ENE,74,4.0,6.0,80,0.00,,,0.00,1.000000,,2013-01-10 03:43:00,
2013-01-09 21:53:00,19.0,14.0,-100.00,ENE,74,4.0,6.0,80,0.00,,,0.00,1.000000,,2013-01-10 03:53:00,
2013-01-09 22:02:00,19.0,14.0,-100.00,ENE,74,4.0,6.0,80,0.00,,,0.00,1.000000,,2013-01-10 04:02:00,
2013-01-09 22:32:00,18.0,14.0,-100.00,ESE,116,3.0,6.0,85,0.00,,,0.00,1.000000,,2013-01-10 04:32:00,
2013-01-09 22:43:00,18.0,14.0,-100.00,ESE,116,3.0,6.0,85,0.00,,,0.00,1.000000,,2013-01-10 04:43:00,
2013-01-09 22:52:00,18.0,14.0,-100.00,ESE,116,3.0,6.0,85,0.00,,,0.00,1.000000,,2013-01-10 04:52:00,
2013-01-09 23:03:00,18.0,14.0,-100.00,ESE,116,3.0,6.0,85,0.00,,,0.00,1.000000,,2013-01-10 05:03:00,
2013-01-09 23:33:00,15.0,12.0,-100.00,East,96,3.0,4.0,88,0.00,,,0.00,1.000000,,2013-01-10 05:33:00,
2013-01-09 23:43:00,15.0,12.0,-100.00,East,96,3.0,4.0,88,0.00,,,0.00,1.000000,,2013-01-10 05:43:00,
2013-01-09 23:53:00,15.0,12.0,-100.00,East,96,3.0,4.0,88,0.00,,,0.00,1.000000,,2013-01-10 05:53:00,